[[{"header":{"parameterUnit":"m.s-1","parameterCategory":1,"la1":30.2991,"la2":30.254,"lo1":-89.0895,"lo2":-89.0444,"dy":0.0017,"dx":0.0017,"nx":28,"ny":28,"refTime":"2024-12-22T03:00:00:Z","depth":0,"parameterNumber":2,"parameterNumberName":"U-component_of_WINDS"},"data":[0,0,0,0,0,0,0,0,0,0,0,0,0,0,0,0,0,0,0,0,0,0,0,0,0,0,0,0,0,0,0,0,0,0,0,0,0,0,0,0,0,0,0,0,0,0,0,0,0,0,0,0,0,0,0,0,0,0,-3.3883,-3.3884,0,-3.3949,-3.395,-3.3951,-3.3835,-3.3831,-3.3827,-3.3824,-3.3892,-3.3898,-3.3903,0,0,0,0,0,0,0,0,0,0,0,0,0,-3.3655,-3.366,-3.3883,-3.3884,-3.3884,-3.3949,-3.395,-3.3951,-3.3836,-3.3831,-3.3826,-3.3822,-3.3891,-3.3897,-3.3904,0,0,0,0,0,0,0,0,0,0,0,0,0,-3.3741,-3.3662,-3.3883,-3.3835,-3.3831,-3.3949,-3.395,-3.3951,-3.3837,-3.3831,-3.3825,-3.382,-3.3888,-3.3896,-3.3904,-3.4072,0,0,-3.393,-3.3933,0,0,0,0,0,0,0,0,-3.3737,-3.375,-3.3841,-3.3838,-3.3834,-3.3878,-3.3895,-3.3992,-3.3838,-3.3835,-3.3823,-3.3817,-3.3892,-3.39,-3.3925,-3.4075,-3.4078,-3.393,-3.3935,-3.3939,-3.3941,0,0,0,0,0,0,0,-3.3731,-3.3746,-3.3909,-3.3842,-3.3839,-3.381,-3.3815,-3.3913,-3.3896,-3.3835,-3.3826,-3.3836,-3.3889,-3.3918,-3.3926,-3.4079,-3.393,-3.3937,-3.3942,-3.3946,-3.4368,-3.4374,0,0,0,0,0,0,-3.3731,-3.3742,-3.3907,-3.3911,-3.377,-3.3819,-3.3825,-3.387,-3.3894,-3.3892,-3.3841,-3.383,-3.3906,-3.3916,-3.3928,-3.4124,-3.3939,-3.3946,-3.3951,-3.4362,-3.4369,-3.4376,0,0,0,0,0,0,-3.3726,-3.3747,-3.3904,-3.3824,-3.3842,-3.3829,-3.388,-3.3874,-3.3902,-3.3899,-3.3895,-3.3873,-3.3902,-3.3916,-3.4037,-3.4125,-3.395,-3.3958,-3.4354,-3.4364,-3.4373,-3.452,0,0,0,0,0,0,-3.372,-3.3746,-3.381,-3.3827,-3.3847,-3.4013,-3.3886,-3.388,-3.3917,-3.3903,-3.3928,-3.3926,-3.3899,-3.4025,-3.4045,-3.4133,-3.3964,-3.4346,-3.4359,-3.437,-3.4507,-3.4534,-3.4556,0,0,0,0,0,-3.3713,-3.3849,-3.3814,-3.3834,-3.3927,-3.4018,-3.403,-3.3995,-3.3924,-3.3988,-3.3985,-3.3925,-3.4112,-3.4038,-3.406,-3.4152,-3.4341,-3.4355,-3.4369,-3.4497,-3.4528,-3.4555,0,0,0,0,0,0,-3.3844,-3.3851,-3.3811,-3.3957,-3.3988,-3.3998,-3.4078,-3.403,-3.4082,-3.4067,-3.4022,-3.4029,-3.4158,-3.4167,-3.4084,-3.4314,-3.4214,-3.4234,-3.4304,-3.4334,-3.4358,-3.4354,-3.3971,0,0,0,0,0,-3.389,-3.3964,-3.3965,-3.4094,-3.4111,-3.4093,-3.4131,-3.4101,-3.4131,-3.4144,-3.415,-3.4181,-3.4246,-3.4291,-3.4351,-3.4508,-3.4511,-3.4582,-3.4606,-3.4626,-3.4643,-3.4725,-3.4756,-3.4423,-3.4423,-3.4422,0,0,-3.3986,-3.3998,-3.4048,-3.4121,-3.4141,-3.4218,-3.4104,-3.4191,-3.4247,-3.4157,-3.427,-3.4276,-3.4308,-3.4447,-3.4508,-3.4458,-3.4735,-3.4644,-3.466,-3.4666,-3.4743,-3.4774,-3.4802,-3.4432,-3.4431,-3.4429,0,0,-3.4199,-3.4217,-3.4325,-3.4347,-3.4379,-3.4365,-3.4391,-3.4409,-3.4409,-3.4522,-3.4455,-3.4521,-3.4635,-3.466,-3.4688,-3.4909,-3.4855,-3.493,-3.5057,-3.5137,-3.5163,-3.5186,-3.5264,-3.5293,-3.4947,-3.4947,-3.4947,0,-3.4315,-3.4428,-3.4387,-3.4478,-3.4512,-3.4432,-3.4541,-3.4565,-3.4615,-3.4639,-3.4582,-3.4723,-3.4739,-3.4881,-3.4935,-3.496,-3.4988,-3.4927,-3.5163,-3.5185,-3.5206,-3.528,-3.531,-3.4956,-3.4955,-3.4954,-3.4953,0,-3.4568,-3.4647,-3.4731,-3.478,-3.4823,-3.4923,-3.4896,-3.4944,-3.4911,-3.4902,-3.5018,-3.5034,-3.5095,-3.5126,-3.5095,-3.5265,-3.5232,-3.517,-3.5069,-3.5248,-3.5316,-3.5344,-3.4968,-3.4965,-3.4963,-3.496,0,0,-3.4868,-3.4892,-3.4923,-3.4944,-3.4972,-3.5032,-3.5127,-3.5186,-3.5228,-3.5265,-3.5343,-3.544,-3.5382,-3.5414,-3.5384,-3.5454,-3.5627,-3.5383,-3.5383,-3.5427,-3.5813,-3.586,-3.5893,-3.5591,-3.5596,-3.56,-3.581,0,-3.508,-3.5244,-3.5209,-3.537,-3.5442,-3.5366,-3.5449,-3.5475,-3.547,-3.553,-3.5523,-3.5593,-3.5511,-3.5529,-3.5595,-3.5592,-3.5704,-3.5576,-3.5663,-3.5666,-3.5657,-3.5929,-3.5979,-3.6177,-3.5837,-3.5841,-3.5845,0,-3.5349,-3.5395,-3.5563,-3.5578,-3.5606,-3.5682,-3.5732,-3.5791,-3.5818,-3.5808,-3.5843,-3.5799,-3.5892,-3.5789,-3.5917,-3.5831,-3.5864,-3.5867,-3.5874,-3.5881,-3.5767,-3.5943,-3.6239,-3.6269,-3.5887,-3.5883,-3.588,0,-3.555,-3.5654,-3.5767,-3.5787,-3.5808,-3.5862,-3.5873,-3.5894,-3.5931,-3.5975,-3.5998,-3.6053,-3.6083,-3.6126,-3.6097,-3.6025,-3.6229,-3.6124,-3.6224,-3.6225,-3.6271,-3.6268,-3.6576,-3.6293,-3.6292,-3.6292,-3.6291,0,-3.5791,-3.5896,-3.5858,-3.5928,-3.6043,-3.6001,-3.6117,-3.6119,-3.6138,-3.6206,-3.6144,-3.621,-3.6168,-3.623,-3.6208,-3.6316,-3.633,-3.6325,-3.6318,-3.6331,-3.6331,-3.6352,-3.6337,-3.63,-3.6298,-3.6296,-3.6295,0,-3.6035,-3.6014,-3.6132,-3.6141,-3.6145,-3.623,-3.6237,-3.6302,-3.6291,-3.6378,-3.6396,-3.6379,-3.6448,-3.6423,-3.6498,-3.6483,-3.6621,-3.6596,-3.6612,-3.6605,-3.6706,-3.6697,-3.7037,-3.7079,-3.677,-3.6773,-3.6775,0,-3.619,-3.6269,-3.6286,-3.6327,-3.6342,-3.6409,-3.6446,-3.6408,-3.6449,-3.6484,-3.6545,-3.6608,-3.6657,-3.6771,-3.6765,-3.6821,-3.6797,-3.6912,-3.6805,-3.6815,-3.6798,-3.6793,-3.68,-3.6934,-3.6938,-3.6941,-3.6943,0,-3.6467,-3.6451,-3.6507,-3.656,-3.6606,-3.6645,-3.6679,-3.6716,-3.6678,-3.6728,-3.6797,-3.6835,-3.691,-3.6974,-3.7024,-3.7034,-3.6983,-3.6977,-3.7002,-3.7016,-3.7022,-3.7019,-3.667,-3.6969,-3.6967,-3.6965,-3.6963,-3.6962,-3.6671,-3.6737,-3.6758,-3.6822,-3.6843,-3.6876,-3.6936,-3.6932,-3.6989,-3.7047,-3.702,-3.7101,-3.7124,-3.7185,-3.7203,-3.7264,-3.7219,-3.7257,-3.7267,-3.7276,-3.7289,-3.7012,-3.7273,-3.7273,-3.7272,-3.7271,-3.7271,0,-3.6943,-3.6953,-3.7012,-3.706,-3.711,-3.7057,-3.7091,-3.7136,-3.7207,-3.7233,-3.7282,-3.7361,-3.7422,-3.742,-3.7476,-3.7526,-3.7504,-3.7542,-3.7538,-3.7541,-3.7326,-3.7298,-3.7559,-3.7559,-3.7559,-3.7559,-3.7559,-3.7558,-3.7091,-3.72,-3.7187,-3.7305,-3.7313,-3.7391,-3.7415,-3.7444,-3.7464,-3.7556,-3.7606,-3.7604,-3.7618,-3.7674,-3.7727,-3.7725,-3.7748,-3.7795,-3.7784,-3.7584,-3.7556,-3.7529,-3.7502,-3.7801,-3.7801,-3.7993,-3.7995,-3.7996]},{"header":{"parameterUnit":"m.s-1","parameterCategory":1,"la1":30.2991,"la2":30.254,"lo1":-89.0895,"lo2":-89.0444,"dy":0.0017,"dx":0.0017,"nx":28,"ny":28,"refTime":"2024-12-22T03:00:00:Z","depth":0,"parameterNumber":3,"parameterNumberName":"V-component_of_WINDS"},"data":[0,0,0,0,0,0,0,0,0,0,0,0,0,0,0,0,0,0,0,0,0,0,0,0,0,0,0,0,0,0,0,0,0,0,0,0,0,0,0,0,0,0,0,0,0,0,0,0,0,0,0,0,0,0,0,0,0,0,-4.1813,-4.1813,0,-4.1888,-4.1889,-4.189,-4.1848,-4.1846,-4.1844,-4.1842,-4.1916,-4.192,-4.1924,0,0,0,0,0,0,0,0,0,0,0,0,0,-4.1626,-4.163,-4.1813,-4.1814,-4.1815,-4.1888,-4.1889,-4.189,-4.1849,-4.1846,-4.1844,-4.1841,-4.1915,-4.192,-4.1924,0,0,0,0,0,0,0,0,0,0,0,0,0,-4.1705,-4.1631,-4.1812,-4.1803,-4.1803,-4.1888,-4.1889,-4.1891,-4.1849,-4.1846,-4.1843,-4.184,-4.1913,-4.1919,-4.1925,-4.2023,0,0,-4.1943,-4.1945,0,0,0,0,0,0,0,0,-4.1701,-4.1712,-4.1803,-4.1804,-4.1804,-4.1856,-4.1851,-4.1935,-4.185,-4.1831,-4.1842,-4.1839,-4.1898,-4.1905,-4.1926,-4.2027,-4.203,-4.1943,-4.1947,-4.1949,-4.1951,0,0,0,0,0,0,0,-4.1695,-4.1709,-4.1842,-4.1805,-4.1805,-4.1793,-4.1801,-4.1867,-4.1881,-4.1833,-4.183,-4.184,-4.1898,-4.1921,-4.1928,-4.2031,-4.1943,-4.1948,-4.1952,-4.1954,-4.2212,-4.2216,0,0,0,0,0,0,-4.1691,-4.1704,-4.184,-4.1845,-4.1744,-4.1799,-4.1807,-4.1842,-4.1881,-4.1883,-4.1842,-4.1837,-4.1912,-4.1921,-4.193,-4.2046,-4.1949,-4.1955,-4.1958,-4.2209,-4.2213,-4.2217,0,0,0,0,0,0,-4.1687,-4.1704,-4.1837,-4.1774,-4.179,-4.1805,-4.1845,-4.1845,-4.1868,-4.1888,-4.189,-4.1863,-4.191,-4.1922,-4.2,-4.2048,-4.1957,-4.1963,-4.2205,-4.221,-4.2215,-4.2279,0,0,0,0,0,0,-4.1682,-4.1703,-4.1742,-4.1775,-4.1793,-4.1907,-4.1848,-4.1849,-4.1879,-4.1873,-4.1908,-4.1911,-4.1909,-4.1991,-4.2006,-4.2054,-4.1967,-4.2201,-4.2207,-4.2213,-4.2272,-4.2285,-4.2296,0,0,0,0,0,-4.1676,-4.1756,-4.1744,-4.176,-4.1843,-4.191,-4.1921,-4.1918,-4.1883,-4.1921,-4.1933,-4.1909,-4.204,-4.2,-4.2016,-4.2066,-4.2198,-4.2206,-4.2213,-4.2267,-4.2283,-4.2296,0,0,0,0,0,0,-4.1727,-4.1761,-4.1747,-4.1841,-4.1873,-4.1903,-4.1951,-4.1935,-4.1977,-4.197,-4.1963,-4.1971,-4.2052,-4.2067,-4.2021,-4.2162,-4.2113,-4.2124,-4.2149,-4.2164,-4.2176,-4.217,-4.1972,0,0,0,0,0,-4.175,-4.1803,-4.1829,-4.1909,-4.1926,-4.1936,-4.1966,-4.196,-4.1993,-4.2006,-4.2024,-4.2055,-4.2103,-4.2135,-4.218,-4.2275,-4.228,-4.2317,-4.2329,-4.2339,-4.2348,-4.2397,-4.2413,-4.2242,-4.2242,-4.2241,0,0,-4.1796,-4.1821,-4.1855,-4.192,-4.1945,-4.1998,-4.1948,-4.2007,-4.2046,-4.2015,-4.2089,-4.2103,-4.2137,-4.2224,-4.2263,-4.2239,-4.2396,-4.2348,-4.2356,-4.236,-4.2406,-4.2422,-4.2436,-4.2247,-4.2246,-4.2245,0,0,-4.1908,-4.1934,-4.2002,-4.2028,-4.2065,-4.2071,-4.2087,-4.2119,-4.2128,-4.2203,-4.2179,-4.2225,-4.2308,-4.2333,-4.2356,-4.2476,-4.2454,-4.249,-4.2553,-4.26,-4.2613,-4.2625,-4.2666,-4.2681,-4.25,-4.25,-4.25,0,-4.1961,-4.2043,-4.2039,-4.21,-4.2128,-4.2103,-4.2171,-4.2195,-4.2245,-4.2264,-4.2237,-4.234,-4.2361,-4.2451,-4.248,-4.2501,-4.2517,-4.2486,-4.2612,-4.2624,-4.2635,-4.2673,-4.2689,-4.2504,-4.2503,-4.2503,-4.2503,0,-4.2105,-4.2161,-4.2212,-4.2261,-4.2295,-4.236,-4.2364,-4.2398,-4.239,-4.2398,-4.2473,-4.2498,-4.2546,-4.2567,-4.256,-4.2656,-4.264,-4.2613,-4.2564,-4.2655,-4.2691,-4.2706,-4.251,-4.2508,-4.2507,-4.2506,0,0,-4.2252,-4.2297,-4.2316,-4.2337,-4.2376,-4.2418,-4.248,-4.2529,-4.2557,-4.2592,-4.2642,-4.2713,-4.2687,-4.2714,-4.2708,-4.275,-4.284,-4.2718,-4.2718,-4.2738,-4.2945,-4.2964,-4.2982,-4.2827,-4.283,-4.2832,-4.2942,0,-4.2365,-4.2474,-4.2472,-4.2573,-4.2624,-4.2599,-4.2653,-4.2681,-4.269,-4.2733,-4.2741,-4.2791,-4.2755,-4.277,-4.281,-4.2821,-4.2882,-4.2813,-4.2871,-4.2874,-4.2862,-4.3001,-4.3022,-4.3124,-4.2956,-4.2958,-4.296,0,-4.2512,-4.2551,-4.2658,-4.2687,-4.2708,-4.2757,-4.2799,-4.2842,-4.2872,-4.2875,-4.2904,-4.2892,-4.2952,-4.2902,-4.2984,-4.2938,-4.2961,-4.297,-4.2973,-4.2978,-4.2921,-4.3007,-4.3157,-4.3171,-4.2982,-4.2981,-4.2979,0,-4.2605,-4.2686,-4.2759,-4.2778,-4.2815,-4.2849,-4.2865,-4.2893,-4.2922,-4.2959,-4.2976,-4.302,-4.3044,-4.3077,-4.3075,-4.3039,-4.3157,-4.3108,-4.316,-4.316,-4.3185,-4.3183,-4.3339,-4.3203,-4.3203,-4.3202,-4.3202,0,-4.2731,-4.2796,-4.2801,-4.2846,-4.2918,-4.2914,-4.2984,-4.2997,-4.3022,-4.3067,-4.3049,-4.3091,-4.3088,-4.313,-4.313,-4.3196,-4.3207,-4.321,-4.3208,-4.3211,-4.321,-4.3225,-4.3217,-4.3206,-4.3205,-4.3205,-4.3204,0,-4.2848,-4.2854,-4.2932,-4.296,-4.2968,-4.302,-4.3043,-4.3084,-4.3091,-4.3148,-4.3161,-4.3171,-4.322,-4.3222,-4.3279,-4.3278,-4.3358,-4.335,-4.3348,-4.3346,-4.3397,-4.3392,-4.3567,-4.3588,-4.344,-4.3442,-4.3443,0,-4.2927,-4.2976,-4.3009,-4.3039,-4.3057,-4.3105,-4.3134,-4.3132,-4.3162,-4.32,-4.3236,-4.3283,-4.3321,-4.34,-4.3411,-4.3453,-4.3444,-4.3503,-4.3451,-4.345,-4.3443,-4.3439,-4.3443,-4.3513,-4.3514,-4.3516,-4.3517,0,-4.3065,-4.3066,-4.3109,-4.3153,-4.3188,-4.3222,-4.3253,-4.3278,-4.3279,-4.3314,-4.3364,-4.3393,-4.345,-4.3496,-4.3537,-4.3552,-4.3534,-4.3533,-4.3547,-4.3549,-4.3545,-4.3546,-4.3374,-4.3529,-4.3528,-4.3527,-4.3526,-4.3526,-4.3164,-4.3206,-4.3236,-4.3284,-4.3307,-4.3337,-4.3377,-4.3388,-4.343,-4.3477,-4.3472,-4.3527,-4.3554,-4.3607,-4.3626,-4.3667,-4.3647,-4.3667,-4.3672,-4.3677,-4.3682,-4.354,-4.3675,-4.3674,-4.3674,-4.3674,-4.3674,0,-4.33,-4.3318,-4.3362,-4.3407,-4.3444,-4.3425,-4.3458,-4.349,-4.3539,-4.3566,-4.3603,-4.366,-4.3704,-4.3718,-4.3761,-4.3791,-4.3784,-4.3802,-4.3799,-4.3802,-4.3698,-4.3681,-4.3807,-4.3807,-4.3807,-4.3807,-4.3807,-4.3807,-4.3375,-4.3444,-4.3448,-4.3528,-4.3545,-4.3599,-4.3619,-4.3646,-4.3667,-4.3731,-4.3768,-4.3778,-4.3799,-4.3843,-4.3882,-4.3885,-4.39,-4.3922,-4.3921,-4.3823,-4.381,-4.3797,-4.3781,-4.3926,-4.3926,-4.4021,-4.4022,-4.4023]}]]